• In Czech Republic
  • List of Countries
  • For 7 days
  • Water Temperature
  • Satellite Maps
  • Weather Map
  • Weather Widgets
  • user-avatar
    Login

    Hourly Weather Kapan

    Today, 23 August, Wednesday

    Time Temperature Precipitation Wind Pressure Humidity
    00:00 +25°C° 0 mm 2 mps 682 mmHg 54%
    01:00 +25°C° 0 mm 2 mps 682 mmHg 54%
    02:00 +24°C° 0 mm 2 mps 682 mmHg 55%
    03:00 +24°C° 0 mm 2 mps 682 mmHg 56%
    04:00 +24°C° 0 mm 2 mps 682 mmHg 55%
    05:00 +24°C° 0 mm 2 mps 682 mmHg 55%
    06:00 +24°C° 0 mm 2 mps 682 mmHg 54%
    07:00 +26°C° 0 mm 2 mps 683 mmHg 48%
    08:00 +28°C° 0 mm 3 mps 683 mmHg 41%
    09:00 +30°C° 0 mm 3 mps 684 mmHg 35%
    10:00 +33°C° 0 mm 3 mps 684 mmHg 32%
    11:00 +34°C° 0 mm 3 mps 684 mmHg 30%
    12:00 +35°C° 0 mm 4 mps 684 mmHg 27%
    13:00 +35°C° 0 mm 4 mps 683 mmHg 27%
    14:00 +35°C° 0 mm 4 mps 683 mmHg 27%
    15:00 +36°C° 0 mm 4 mps 683 mmHg 27%
    16:00 +34°C° 0 mm 4 mps 683 mmHg 29%
    17:00 +33°C° 0 mm 4 mps 683 mmHg 31%
    18:00 +32°C° 0 mm 4 mps 682 mmHg 34%
    19:00 +29°C° 0 mm 3 mps 683 mmHg 38%
    20:00 +27°C° 0 mm 3 mps 683 mmHg 43%
    21:00 +26°C° 0 mm 2 mps 683 mmHg 47%
    22:00 +25°C° 0 mm 2 mps 683 mmHg 49%
    23:00 +25°C° 0 mm 2 mps 683 mmHg 51%

    Tomorrow, 24 August, Thursday

    Time Temperature Precipitation Wind Pressure Humidity
    00:00 +24°C° 0 mm 2 mps 684 mmHg 54%
    01:00 +24°C° 0 mm 2 mps 684 mmHg 55%
    02:00 +23°C° 0 mm 2 mps 684 mmHg 56%
    03:00 +23°C° 0 mm 2 mps 684 mmHg 57%
    04:00 +23°C° 0 mm 2 mps 684 mmHg 57%
    05:00 +23°C° 0 mm 2 mps 685 mmHg 57%
    06:00 +23°C° 0 mm 2 mps 685 mmHg 56%
    07:00 +25°C° 0 mm 2 mps 685 mmHg 49%
    08:00 +27°C° 0 mm 3 mps 686 mmHg 41%
    09:00 +29°C° 0 mm 3 mps 686 mmHg 33%
    10:00 +31°C° 0 mm 3 mps 686 mmHg 31%
    11:00 +33°C° 0 mm 4 mps 686 mmHg 28%
    12:00 +34°C° 0 mm 4 mps 686 mmHg 25%
    13:00 +34°C° 0 mm 4 mps 686 mmHg 25%
    14:00 +35°C° 0 mm 4 mps 685 mmHg 24%
    15:00 +35°C° 0 mm 4 mps 685 mmHg 24%
    16:00 +34°C° 0 mm 4 mps 685 mmHg 26%
    17:00 +32°C° 0 mm 4 mps 685 mmHg 28%
    18:00 +30°C° 0 mm 4 mps 684 mmHg 29%
    19:00 +28°C° 0 mm 3 mps 685 mmHg 32%
    20:00 +26°C° 0 mm 3 mps 685 mmHg 35%
    21:00 +25°C° 0 mm 2 mps 685 mmHg 39%
    22:00 +24°C° 0 mm 2 mps 685 mmHg 39%
    23:00 +24°C° 0 mm 2 mps 685 mmHg 40%

    Day after tomorrow, 25 August, Friday

    Time Temperature Precipitation Wind Pressure Humidity
    00:00 +24°C° 0 mm 2 mps 685 mmHg 40%
    01:00 +23°C° 0 mm 2 mps 685 mmHg 40%
    02:00 +23°C° 0 mm 2 mps 685 mmHg 41%
    03:00 +23°C° 0 mm 2 mps 685 mmHg 41%
    04:00 +23°C° 0 mm 2 mps 686 mmHg 40%
    05:00 +23°C° 0 mm 2 mps 686 mmHg 40%
    06:00 +23°C° 0 mm 2 mps 686 mmHg 39%
    07:00 +25°C° 0 mm 2 mps 687 mmHg 34%
    08:00 +27°C° 0 mm 3 mps 687 mmHg 29%
    09:00 +29°C° 0 mm 3 mps 687 mmHg 23%
    10:00 +30°C° 0 mm 3 mps 687 mmHg 22%
    11:00 +33°C° 0 mm 4 mps 687 mmHg 20%
    12:00 +34°C° 0 mm 4 mps 687 mmHg 19%
    13:00 +34°C° 0 mm 4 mps 686 mmHg 19%
    14:00 +34°C° 0 mm 4 mps 686 mmHg 18%
    15:00 +34°C° 0 mm 4 mps 685 mmHg 18%
    16:00 +33°C° 0 mm 4 mps 685 mmHg 20%
    17:00 +32°C° 0 mm 4 mps 685 mmHg 22%
    18:00 +29°C° 0 mm 4 mps 685 mmHg 23%
    19:00 +27°C° 0 mm 3 mps 685 mmHg 27%
    20:00 +26°C° 0 mm 3 mps 685 mmHg 31%
    21:00 +24°C° 0 mm 2 mps 686 mmHg 34%
    22:00 +23°C° 0 mm 2 mps 685 mmHg 37%
    23:00 +23°C° 0 mm 2 mps 685 mmHg 41%

    26 August, Saturday

    Time Temperature Precipitation Wind Pressure Humidity
    00:00 +21°C° 0 mm 2 mps 685 mmHg 44%
    01:00 +21°C° 0 mm 2 mps 685 mmHg 46%
    02:00 +21°C° 0 mm 2 mps 685 mmHg 49%
    03:00 +20°C° 0 mm 2 mps 685 mmHg 51%
    04:00 +20°C° 0 mm 2 mps 686 mmHg 51%
    05:00 +20°C° 0 mm 2 mps 686 mmHg 50%
    06:00 +20°C° 0 mm 2 mps 686 mmHg 50%
    07:00 +22°C° 0 mm 3 mps 686 mmHg 43%
    08:00 +25°C° 0 mm 3 mps 687 mmHg 36%
    09:00 +27°C° 0 mm 3 mps 687 mmHg 29%
    10:00 +29°C° 0 mm 3 mps 687 mmHg 26%
    11:00 +30°C° 0 mm 4 mps 686 mmHg 24%
    12:00 +32°C° 0 mm 4 mps 686 mmHg 21%
    13:00 +32°C° 0 mm 4 mps 686 mmHg 21%
    14:00 +33°C° 0 mm 4 mps 685 mmHg 21%
    15:00 +33°C° 0 mm 4 mps 685 mmHg 20%
    16:00 +32°C° 0 mm 4 mps 685 mmHg 23%
    17:00 +29°C° 0 mm 4 mps 685 mmHg 25%
    18:00 +28°C° 0 mm 4 mps 684 mmHg 28%
    19:00 +26°C° 0 mm 3 mps 685 mmHg 32%
    20:00 +25°C° 0 mm 3 mps 685 mmHg 37%
    21:00 +23°C° 0 mm 2 mps 685 mmHg 41%
    22:00 +21°C° 0 mm 2 mps 685 mmHg 43%
    23:00 +21°C° 0 mm 2 mps 685 mmHg 45%

    27 August, Sunday

    Time Temperature Precipitation Wind Pressure Humidity
    00:00 +20°C° 0 mm 2 mps 685 mmHg 47%
    01:00 +20°C° 0 mm 2 mps 685 mmHg 47%
    02:00 +20°C° 0 mm 2 mps 685 mmHg 48%
    03:00 +19°C° 0 mm 2 mps 685 mmHg 48%
    04:00 +19°C° 0 mm 2 mps 685 mmHg 47%
    05:00 +19°C° 0 mm 2 mps 685 mmHg 45%
    06:00 +19°C° 0 mm 2 mps 685 mmHg 44%
    07:00 +23°C° 0 mm 2 mps 685 mmHg 38%
    08:00 +25°C° 0 mm 3 mps 686 mmHg 32%
    09:00 +27°C° 0 mm 3 mps 686 mmHg 26%
    10:00 +28°C° 0 mm 3 mps 686 mmHg 24%
    11:00 +29°C° 0 mm 4 mps 686 mmHg 23%
    12:00 +32°C° 0 mm 4 mps 685 mmHg 22%
    13:00 +32°C° 0 mm 4 mps 685 mmHg 22%
    14:00 +32°C° 0 mm 4 mps 685 mmHg 23%
    15:00 +32°C° 0 mm 4 mps 684 mmHg 23%
    16:00 +30°C° 0 mm 4 mps 684 mmHg 26%
    17:00 +29°C° 0 mm 4 mps 684 mmHg 30%
    18:00 +28°C° 0 mm 4 mps 684 mmHg 33%
    19:00 +26°C° 0 mm 3 mps 684 mmHg 38%
    20:00 +24°C° 0 mm 3 mps 684 mmHg 43%
    21:00 +21°C° 0 mm 2 mps 684 mmHg 49%
    22:00 +21°C° 0 mm 2 mps 684 mmHg 50%
    23:00 +21°C° 0 mm 2 mps 684 mmHg 52%

    28 August, Monday

    Time Temperature Precipitation Wind Pressure Humidity
    00:00 +20°C° 0 mm 2 mps 684 mmHg 54%
    01:00 +20°C° 0 mm 2 mps 684 mmHg 54%
    02:00 +20°C° 0 mm 2 mps 684 mmHg 55%
    03:00 +19°C° 0 mm 2 mps 684 mmHg 56%
    04:00 +19°C° 0 mm 2 mps 684 mmHg 54%
    05:00 +20°C° 0 mm 2 mps 685 mmHg 52%
    06:00 +20°C° 0 mm 2 mps 685 mmHg 50%
    07:00 +23°C° 0 mm 2 mps 685 mmHg 44%
    08:00 +25°C° 0 mm 2 mps 685 mmHg 37%
    09:00 +27°C° 0 mm 3 mps 686 mmHg 31%
    10:00 +28°C° 0 mm 3 mps 685 mmHg 29%
    11:00 +30°C° 0 mm 3 mps 685 mmHg 27%
    12:00 +31°C° 0 mm 3 mps 685 mmHg 25%
    13:00 +31°C° 0 mm 3 mps 684 mmHg 25%
    14:00 +33°C° 0 mm 3 mps 684 mmHg 24%
    15:00 +33°C° 0 mm 4 mps 683 mmHg 24%
    16:00 +31°C° 0 mm 3 mps 683 mmHg 26%
    17:00 +30°C° 0 mm 3 mps 683 mmHg 29%
    18:00 +29°C° 0 mm 3 mps 683 mmHg 31%
    19:00 +27°C° 0 mm 3 mps 683 mmHg 35%
    20:00 +25°C° 0 mm 2 mps 683 mmHg 39%
    21:00 +24°C° 0 mm 2 mps 683 mmHg 44%
    22:00 +23°C° 0 mm 2 mps 683 mmHg 44%
    23:00 +23°C° 0 mm 2 mps 683 mmHg 45%
    Show more